This demonstration page uses our WeatherBlox Daily Observations layout. Learn more.

40.92945, -100.16068

Hourly Observations for June 17, 2017

Temp ( °F °C ) Dew Point ( °F °C ) Humidity (%) Winds ( mph kmh ) Pressure ( in mb ) Visibility ( mi km ) Precip ( " mm )
12:15 am 00:15 Clear 68 20.1 57 14 68 68 NE 5 7 29.62 1003 10 16.0934 0 0
12:35 am 00:35 Clear 66 19.1 57 14.1 73 73 NE 6 9 29.65 1004 10 16.0934 0 0
12:55 am 00:55 Clear 65 18.5 57 14.1 76 76 NE 5 7 29.62 1003 10 16.0934 0 0
1:15 am 01:15 Clear 65 18.5 57 14 75 75 NE 6 9 29.62 1003 10 16.0934 0 0
1:35 am 01:35 Clear 63 17.1 56 13.5 80 80 N 7 11 29.62 1003 10 16.0934 0 0
1:55 am 01:55 Clear 63 17.1 56 13.6 80 80 N 3 6 29.62 1003 10 16.0934 0 0
2:15 am 02:15 Clear 61 16.2 55 12.9 81 81 N 8 13 29.65 1004 10 16.0934 0 0
2:35 am 02:35 Clear 61 16.2 55 13 81 81 N 5 7 29.68 1005 10 16.0934 0 0
2:55 am 02:55 Clear 61 16.2 55 12.9 81 81 NNW 5 7 29.68 1005 10 16.0934 0 0
3:15 am 03:15 Clear 59 15 54 12.4 85 85 Calm 29.68 1005 10 16.0934 0 0
3:35 am 03:35 Clear 59 15.1 54 12.4 84 84 Calm 29.68 1005 10 16.0934 0 0
3:55 am 03:55 Clear 58 14.6 55 12.5 87 87 Calm 29.68 1005 10 16.0934 0 0
4:15 am 04:15 Clear 57 14 54 12.1 88 88 Calm 29.68 1005 7 11.26538 0 0
4:35 am 04:35 Clear 58 14.5 55 12.6 88 88 W 3 6 29.65 1004 10 16.0934 0 0
4:55 am 04:55 Clear 57 13.9 54 12.3 90 90 NW 6 9 29.65 1004 10 16.0934 0 0
5:15 am 05:15 Clear 58 14.2 55 12.8 91 91 NW 7 11 29.68 1005 10 16.0934 0 0
5:35 am 05:35 Clear 59 14.8 55 12.9 88 88 NW 7 11 29.68 1005 10 16.0934 0 0
5:55 am 05:55 Clear 58 14.6 55 12.8 89 89 W 5 7 29.68 1005 10 16.0934 0 0
6:15 am 06:15 Sunny 58 14.2 55 12.6 90 90 W 5 7 29.68 1005 10 16.0934 0 0
6:35 am 06:35 Sunny 58 14.5 55 12.8 90 90 NNW 8 13 29.68 1005 10 16.0934 0 0
6:55 am 06:55 Sunny 59 15.1 56 13.4 90 90 NW 5 7 29.68 1005 10 16.0934 0 0
7:15 am 07:15 Sunny 62 16.6 58 14.4 87 87 NNW 5 7 29.68 1005 10 16.0934 0 0
7:35 am 07:35 Sunny 63 17 59 14.8 87 87 NNW 7 11 29.71 1006 10 16.0934 0 0
7:55 am 07:55 Sunny 65 18.1 59 15 82 82 NW 8 13 29.68 1005 10 16.0934 0 0
8:15 am 08:15 Sunny 66 18.9 60 15.6 81 81 NNW 7 11 29.68 1005 10 16.0934 0 0
8:35 am 08:35 Sunny 70 21.1 61 16.3 74 74 N 8 13 29.65 1004 10 16.0934 0 0
8:55 am 08:55 Sunny 72 22.2 61 16.2 69 69 N 12 19 29.65 1004 10 16.0934 0 0
9:15 am 09:15 Sunny 73 22.6 62 16.4 68 68 NNE 10 17 29.65 1004 10 16.0934 0 0
9:35 am 09:35 Sunny 73 23 61 15.9 64 64 NNE 8 13 29.65 1004 10 16.0934 0 0
9:55 am 09:55 Sunny 75 23.8 61 15.9 61 61 N 8 13 29.65 1004 10 16.0934 0 0
10:15 am 10:15 Sunny 76 24.5 61 15.9 59 59 NNE 10 17 29.62 1003 10 16.0934 0 0
10:35 am 10:35 Sunny 78 25.3 61 16.1 57 57 NNE 9 15 29.62 1003 10 16.0934 0 0
10:55 am 10:55 Sunny 78 25.7 60 15.3 53 53 NNE 10 17 29.62 1003 10 16.0934 0 0
11:15 am 11:15 Sunny 77 24.8 58 14.6 53 53 NNE 9 15 29.62 1003 10 16.0934 0 0
11:35 am 11:35 Sunny 77 25.1 60 15.3 55 55 N 13 20 29.65 1004 10 16.0934 0 0
11:55 am 11:55 Sunny 79 26.3 60 15.4 51 51 NNE 8 13 29.62 1003 10 16.0934 0 0
12:15 pm 12:15 Sunny 79 26.3 59 14.9 50 50 ENE 9 15 29.62 1003 10 16.0934 0 0
12:35 pm 12:35 Sunny 81 27.3 59 15.2 48 48 ENE 9 15 29.59 1002 10 16.0934 0 0
12:55 pm 12:55 Sunny 80 26.6 62 16.4 54 54 NE 14 22 29.59 1002 10 16.0934 0 0
1:15 pm 13:15 Sunny 78 25.3 61 15.9 56 56 ENE 10 17 29.62 1003 10 16.0934 0 0
1:35 pm 13:35 Sunny 77 25 60 15.4 55 55 ENE 9 15 29.62 1003 10 16.0934 0 0
1:55 pm 13:55 Sunny 76 24.7 61 16 59 59 NNE 7 11 29.62 1003 10 16.0934 0 0
2:15 pm 14:15 Sunny 76 24.7 61 16.2 59 59 NNE 9 15 29.62 1003 10 16.0934 0 0
2:35 pm 14:35 Sunny 76 24.3 60 15.6 58 58 NNE 10 17 29.65 1004 10 16.0934 0 0
2:55 pm 14:55 Sunny 76 24.6 61 16.2 60 60 NNE 9 15 29.62 1003 10 16.0934 0 0
3:15 pm 15:15 Sunny 76 24.2 61 15.9 60 60 NNE 7 11 29.65 1004 10 16.0934 0 0
3:35 pm 15:35 Sunny 76 24.3 60 15.6 58 58 NNE 8 13 29.68 1005 10 16.0934 0 0
3:55 pm 15:55 Sunny 78 25.4 62 16.6 58 58 NE 10 17 29.65 1004 10 16.0934 0 0
4:15 pm 16:15 Sunny 75 23.7 58 14.4 56 56 NNE 17 28 29.68 1005 10 16.0934 0 0
4:35 pm 16:35 Sunny 74 23.3 59 14.8 59 59 NNE 15 24 29.71 1006 10 16.0934 0 0
4:55 pm 16:55 Partly Cloudy with Light Rain 73 22.6 59 15 62 62 NNE 15 24 29.71 1006 10 16.0934 0 0
5:15 pm 17:15 Partly Cloudy with Light Rain 72 22 59 15.2 65 65 N 14 22 29.71 1006 10 16.0934 0 0
5:35 pm 17:35 Mostly Cloudy with Light Rain 69 20.7 61 15.9 74 74 N 12 19 29.74 1007 10 16.0934 0 0
5:55 pm 17:55 Cloudy with Light Rain 69 20.6 61 16.2 76 76 NNE 6 9 29.77 1008 10 16.0934 0 0
6:15 pm 18:15 Cloudy with Light Rain 69 20.5 62 16.9 80 80 NNE 8 13 29.77 1008 10 16.0934 0 0
6:35 pm 18:35 Cloudy with Rain 69 20.7 62 16.5 77 77 N 9 15 29.8 1009 10 16.0934 0 0
6:55 pm 18:55 Cloudy with Light Rain 68 20 60 15.7 76 76 N 3 6 29.77 1008 10 16.0934 0.01 0.254
7:15 pm 19:15 Cloudy with Rain 69 20.5 61 16.2 76 76 N 7 11 29.8 1009 10 16.0934 0.01 0.254
7:35 pm 19:35 Cloudy with Rain 68 20 60 15.8 77 77 N 5 7 29.8 1009 10 16.0934 0.01 0.254
7:55 pm 19:55 Partly Cloudy 69 20.5 62 16.5 78 78 NE 3 6 29.77 1008 10 16.0934 0.01 0.254
8:15 pm 20:15 Partly Cloudy 69 20.5 60 15.8 75 75 N 7 11 29.8 1009 10 16.0934 0 0
8:35 pm 20:35 Partly Cloudy 68 20.1 58 14.7 71 71 NNE 8 13 29.8 1009 10 16.0934 0 0
8:55 pm 20:55 Sunny 68 19.9 56 13.1 65 65 NNE 12 19 29.8 1009 10 16.0934 0 0
9:15 pm 21:15 Clear 66 18.9 56 13.3 70 70 N 7 11 29.85 1011 10 16.0934 0 0
9:35 pm 21:35 Partly Cloudy 66 18.9 56 13.4 71 71 NNE 3 6 29.85 1011 10 16.0934 0 0
9:55 pm 21:55 Mostly Cloudy with Light Rain 65 18.2 57 13.9 76 76 Calm 29.85 1011 10 16.0934 0 0
10:15 pm 22:15 Partly Cloudy 64 17.5 58 14.6 83 83 N 5 7 29.85 1011 10 16.0934 0 0
10:35 pm 22:35 Clear 64 17.9 58 14.2 79 79 Calm 29.85 1011 10 16.0934 0 0
10:55 pm 22:55 Clear 63 17 58 14.5 85 85 NW 6 9 29.85 1011 10 16.0934 0 0
11:15 pm 23:15 Partly Cloudy 63 17 57 14 83 83 W 5 7 29.88 1012 10 16.0934 0 0
11:35 pm 23:35 Partly Cloudy 63 17.2 57 14.1 82 82 WNW 5 7 29.88 1012 10 16.0934 0 0
11:55 pm 23:55 Partly Cloudy 62 16.4 57 13.7 84 84 NW 6 9 29.85 1011 10 16.0934 0 0

Powered by AerisWeather